This demonstration page uses our WeatherBlox Daily Observations layout. Learn more.

Left ArrowRight Arrow

41.12389, -100.76542

Hourly Observations for December 20, 2017

Temp ( °F °C ) Dew Point ( °F °C ) Humidity (%) Winds ( mph kmh ) Pressure ( in mb ) Visibility ( mi km ) Precip ( " mm )
12:53 am 00:53 Clear 19 -7.2 14 -10 81 81 ESE 8 13 30.08 1019 10 16 0.00 0.00
1:53 am 01:53 Clear 19 -7.2 14 -10 81 81 E 6 9 30.07 1018 10 16 0.00 0.00
2:53 am 02:53 Clear 20 -6.7 14 -10 78 78 E 7 11 30.05 1018 10 16 0.00 0.00
3:53 am 03:53 Clear 22 -5.6 15 -9.4 75 75 SE 7 11 30.02 1017 10 16 0.00 0.00
4:53 am 04:53 Clear 23 -5 16 -8.9 74 74 SE 6 9 30.00 1016 10 16 0.00 0.00
5:53 am 05:53 Clear 28 -2.2 17 -8.3 63 63 SSE 10 17 29.99 1016 10 16 0.00 0.00
6:53 am 06:53 Clear 25 -3.9 16 -8.9 69 69 SE 7 11 30.00 1016 10 16 0.00 0.00
8:53 am 08:53 Sunny 24 -4.4 17 -8.3 75 75 ESE 5 7 29.98 1015 10 16 0.00 0.00
9:53 am 09:53 Sunny 33 0.6 23 -5 66 66 S 6 9 29.96 1015 10 16 0.00 0.00
10:53 am 10:53 Sunny 38 3.3 25 -3.9 60 60 S 15 24 29.93 1013 10 16 0.00 0.00
11:53 am 11:53 Sunny 42 5.6 27 -2.8 55 55 S 15 24 29.87 1012 10 16 0.00 0.00
12:53 pm 12:53 Sunny 44 6.7 29 -1.7 55 55 S 13 20 29.82 1010 10 16 0.00 0.00
1:53 pm 13:53 Sunny 47 8.3 29 -1.7 50 50 S 16 26 29.78 1009 10 16 0.00 0.00
2:53 pm 14:53 Sunny 50 10 30 -1.1 46 46 S 8 13 29.75 1008 10 16 0.00 0.00
3:53 pm 15:53 Sunny 49 9.4 31 -0.6 50 50 SSE 9 15 29.72 1006 10 16 0.00 0.00
4:53 pm 16:53 Sunny 46 7.8 30 -1.1 54 54 SSE 6 9 29.72 1006 10 16 0.00 0.00
5:53 pm 17:53 Clear 42 5.6 29 -1.7 60 60 SE 8 13 29.73 1007 10 16 0.00 0.00
6:53 pm 18:53 Clear 41 5 30 -1.1 65 65 SE 7 11 29.73 1007 10 16 0.00 0.00
7:53 pm 19:53 Clear 38 3.3 30 -1.1 73 73 E 8 13 29.73 1007 10 16 0.00 0.00
8:53 pm 20:53 Clear 38 3.3 31 -0.6 76 76 ESE 8 13 29.73 1007 10 16 0.00 0.00
9:53 pm 21:53 Clear 35 1.7 30 -1.1 82 82 E 7 11 29.72 1007 10 16 0.00 0.00
10:53 pm 22:53 Clear 34 1.1 30 -1.1 85 85 E 6 9 29.70 1006 10 16 0.00 0.00
11:53 pm 23:53 Clear 37 2.8 32 0 82 82 ENE 7 11 29.70 1006 10 16 0.00 0.00

Powered by AerisWeather